| time (UTC) | temp F | wind direction | speed MPH | gust MPH | rain 1hr in | rain 24hr in | rain mn in | humidity % | barometer mb |
| 20260831203516 | 76 | 0.0 | 0.0 | 0.00 | 0.01 | 0.01 | 55 | 1017.5 | |
| 20260831202538 | 76 | 0.0 | 0.0 | 0.00 | 0.01 | 0.01 | 52 | 1017.6 | |
| 20260831201517 | 76 | 0.0 | 2.0 | 0.00 | 0.01 | 0.01 | 54 | 1017.6 | |
| 20260831200517 | 76 | 0.0 | 1.0 | 0.00 | 0.01 | 0.01 | 52 | 1017.4 | |
| 20260831195517 | 76 | 0.0 | 2.0 | 0.00 | 0.01 | 0.01 | 56 | 1017.6 | |
| 20260831194537 | 76 | 135 | 1.0 | 4.0 | 0.00 | 0.01 | 0.01 | 58 | 1017.7 |
| 20260831194017 | 76 | 135 | 1.0 | 2.0 | 0.00 | 0.01 | 0.01 | 57 | 1017.7 |
| 20260831193016 | 75 | 0.0 | 0.0 | 0.00 | 0.01 | 0.01 | 61 | 1017.8 | |
| 20260831192516 | 74 | 0.0 | 1.0 | 0.00 | 0.01 | 0.01 | 62 | 1017.9 | |
| 20260831191516 | 74 | 0.0 | 2.0 | 0.00 | 0.01 | 0.01 | 58 | 1018.0 | |
| 20260831190517 | 74 | 135 | 1.0 | 2.0 | 0.00 | 0.01 | 0.01 | 65 | 1018.0 |
| 20260831185517 | 74 | 135 | 1.0 | 3.0 | 0.00 | 0.01 | 0.01 | 66 | 1018.1 |
| 20260831184517 | 75 | 135 | 3.0 | 4.0 | 0.00 | 0.01 | 0.01 | 66 | 1018.1 |
| 20260831183517 | 74 | 135 | 1.0 | 4.0 | 0.00 | 0.01 | 0.01 | 67 | 1018.1 |
| 20260831182537 | 73 | 135 | 2.0 | 4.0 | 0.00 | 0.01 | 0.01 | 67 | 1018.3 |
| 20260831181517 | 73 | 135 | 3.0 | 4.0 | 0.00 | 0.01 | 0.01 | 69 | 1018.5 |
| 20260831180517 | 74 | 135 | 1.0 | 3.0 | 0.00 | 0.01 | 0.01 | 68 | 1018.5 |
| 20260831175535 | 73 | 135 | 1.0 | 2.0 | 0.00 | 0.01 | 0.01 | 70 | 1018.8 |
| 20260831174517 | 73 | 135 | 1.0 | 3.0 | 0.00 | 0.01 | 0.01 | 68 | 1019.0 |
| 20260831173518 | 73 | 135 | 1.0 | 3.0 | 0.00 | 0.01 | 0.01 | 71 | 1019.1 |
| 20260831172517 | 73 | 135 | 1.0 | 2.0 | 0.00 | 0.01 | 0.01 | 71 | 1019.2 |
| 20260831171517 | 73 | 135 | 1.0 | 3.0 | 0.00 | 0.01 | 0.01 | 69 | 1019.3 |
| 20260831170517 | 73 | 0.0 | 1.0 | 0.00 | 0.01 | 0.01 | 72 | 1019.3 | |
| 20260831165517 | 73 | 135 | 1.0 | 2.0 | 0.00 | 0.01 | 0.01 | 71 | 1019.4 |
| 20260831164516 | 72 | 0.0 | 0.0 | 0.00 | 0.01 | 0.01 | 72 | 1019.5 | |
| 20260831163517 | 72 | 0.0 | 1.0 | 0.00 | 0.01 | 0.01 | 72 | 1019.6 | |
| 20260831162538 | 72 | 135 | 1.0 | 4.0 | 0.00 | 0.01 | 0.01 | 72 | 1019.6 |
| 20260831161517 | 72 | 0.0 | 2.0 | 0.00 | 0.01 | 0.01 | 73 | 1019.6 | |
| 20260831160537 | 72 | 0.0 | 2.0 | 0.00 | 0.01 | 0.01 | 73 | 1019.6 | |
| 20260831155517 | 71 | 135 | 2.0 | 3.0 | 0.00 | 0.01 | 0.01 | 74 | 1019.7 |
| 20260831154536 | 71 | 0.0 | 2.0 | 0.00 | 0.01 | 0.01 | 76 | 1019.7 | |
| 20260831153518 | 70 | 135 | 2.0 | 4.0 | 0.00 | 0.01 | 0.01 | 76 | 1019.7 |
| 20260831152517 | 70 | 135 | 1.0 | 3.0 | 0.00 | 0.01 | 0.01 | 76 | 1019.7 |
| 20260831151517 | 69 | 135 | 2.0 | 3.0 | 0.00 | 0.01 | 0.01 | 77 | 1019.7 |
| 20260831150517 | 69 | 135 | 3.0 | 5.0 | 0.00 | 0.01 | 0.01 | 79 | 1019.7 |
| 20260831145517 | 68 | 135 | 3.0 | 4.0 | 0.00 | 0.01 | 0.01 | 79 | 1019.9 |
| 20260831144517 | 67 | 135 | 2.0 | 3.0 | 0.00 | 0.01 | 0.01 | 81 | 1019.8 |
| 20260831143516 | 67 | 135 | 1.0 | 4.0 | 0.00 | 0.01 | 0.01 | 81 | 1019.7 |
| 20260831142517 | 66 | 135 | 2.0 | 4.0 | 0.00 | 0.01 | 0.01 | 83 | 1019.7 |
| 20260831141517 | 66 | 0.0 | 2.0 | 0.00 | 0.01 | 0.01 | 85 | 1019.8 | |
| 20260831140517 | 65 | 135 | 1.0 | 3.0 | 0.00 | 0.01 | 0.01 | 84 | 1019.7 |
| 20260831135517 | 64 | 113 | 1.0 | 3.0 | 0.00 | 0.01 | 0.01 | 87 | 1019.8 |
| 20260831134517 | 63 | 315 | 1.0 | 4.0 | 0.00 | 0.01 | 0.01 | 88 | 1019.9 |
| 20260831133557 | 62 | 0.0 | 0.0 | 0.00 | 0.01 | 0.01 | 92 | 1019.9 | |
| 20260831132618 | 61 | 0.0 | 0.0 | 0.00 | 0.01 | 0.01 | 92 | 1019.9 | |
| 20260831131517 | 61 | 0.0 | 0.0 | 0.00 | 0.01 | 0.01 | 95 | 1019.9 | |
| 20260831130537 | 60 | 0.0 | 0.0 | 0.00 | 0.01 | 0.01 | 95 | 1020.0 | |
| 20260831125516 | 59 | 0.0 | 0.0 | 0.00 | 0.01 | 0.01 | 96 | 1019.9 | |
| 20260831124516 | 59 | 0.0 | 0.0 | 0.00 | 0.01 | 0.01 | 97 | 1020.0 | |
| 20260831123517 | 58 | 0.0 | 0.0 | 0.00 | 0.01 | 0.01 | 97 | 1020.0 | |
| 20260831122517 | 58 | 0.0 | 0.0 | 0.00 | 0.01 | 0.01 | 97 | 1020.1 | |
| 20260831121516 | 58 | 0.0 | 0.0 | 0.01 | 0.01 | 0.01 | 97 | 1020.3 | |
| 20260831120516 | 57 | 0.0 | 0.0 | 0.01 | 0.01 | 0.01 | 97 | 1020.2 | |
| 20260831115538 | 56 | 0.0 | 0.0 | 0.01 | 0.01 | 0.01 | 97 | 1020.4 | |
| 20260831114517 | 55 | 0.0 | 0.0 | 0.01 | 0.01 | 0.01 | 97 | 1020.4 | |
| 20260831113516 | 55 | 0.0 | 0.0 | 0.01 | 0.01 | 0.01 | 97 | 1020.4 | |
| 20260831112517 | 55 | 0.0 | 0.0 | 0.01 | 0.01 | 0.01 | 97 | 1020.3 | |
| 20260831111537 | 54 | 0.0 | 0.0 | 0.00 | 0.00 | 0.00 | 97 | 1020.2 | |
| 20260831110517 | 54 | 0.0 | 0.0 | 0.00 | 0.00 | 0.00 | 96 | 1020.2 | |
| 20260831105517 | 54 | 0.0 | 0.0 | 0.00 | 0.00 | 0.00 | 96 | 1020.1 | |
| 20260831104517 | 54 | 0.0 | 0.0 | 0.00 | 0.00 | 0.00 | 96 | 1020.0 | |
| 20260831103517 | 54 | 0.0 | 0.0 | 0.00 | 0.00 | 0.00 | 96 | 1019.9 | |
| 20260831102517 | 53 | 0.0 | 0.0 | 0.00 | 0.00 | 0.00 | 96 | 1019.7 | |
| 20260831101518 | 54 | 0.0 | 0.0 | 0.00 | 0.00 | 0.00 | 96 | 1019.7 | |
| 20260831100516 | 54 | 0.0 | 0.0 | 0.00 | 0.00 | 0.00 | 96 | 1019.6 | |
| 20260831095517 | 54 | 0.0 | 0.0 | 0.00 | 0.00 | 0.00 | 96 | 1019.6 | |
| 20260831094517 | 54 | 0.0 | 0.0 | 0.00 | 0.00 | 0.00 | 96 | 1019.5 | |
| 20260831093517 | 54 | 0.0 | 0.0 | 0.00 | 0.00 | 0.00 | 96 | 1019.6 | |
| 20260831092517 | 54 | 0.0 | 0.0 | 0.00 | 0.00 | 0.00 | 96 | 1019.5 | |
| 20260831091517 | 55 | 0.0 | 0.0 | 0.00 | 0.00 | 0.00 | 96 | 1019.6 | |
| 20260831090517 | 55 | 0.0 | 0.0 | 0.00 | 0.00 | 0.00 | 96 | 1019.6 | |
| 20260831085517 | 56 | 0.0 | 0.0 | 0.00 | 0.00 | 0.00 | 96 | 1019.7 | |
| 20260831084517 | 56 | 0.0 | 0.0 | 0.00 | 0.00 | 0.00 | 96 | 1019.8 | |
| 20260831083557 | 56 | 0.0 | 0.0 | 0.00 | 0.00 | 0.00 | 96 | 1020.0 | |
| 20260831082517 | 56 | 0.0 | 0.0 | 0.00 | 0.00 | 0.00 | 96 | 1019.9 | |
| 20260831081517 | 56 | 0.0 | 0.0 | 0.00 | 0.00 | 0.00 | 96 | 1019.9 | |
| 20260831080517 | 56 | 0.0 | 0.0 | 0.00 | 0.00 | 0.00 | 96 | 1019.8 | |
| 20260831075517 | 56 | 0.0 | 0.0 | 0.00 | 0.00 | 0.00 | 96 | 1019.8 | |
| 20260831074517 | 56 | 0.0 | 0.0 | 0.00 | 0.00 | 0.00 | 95 | 1019.7 | |
| 20260831073517 | 57 | 0.0 | 0.0 | 0.00 | 0.00 | 0.00 | 96 | 1019.7 | |
| 20260831072538 | 57 | 0.0 | 0.0 | 0.00 | 0.00 | 0.00 | 96 | 1019.7 | |
| 20260831071537 | 56 | 0.0 | 0.0 | 0.00 | 0.00 | 0.00 | 95 | 1019.6 | |
| 20260831070517 | 57 | 0.0 | 0.0 | 0.00 | 0.00 | 0.00 | 96 | 1019.6 | |
| 20260831065517 | 57 | 0.0 | 0.0 | 0.00 | 0.00 | 0.00 | 96 | 1019.6 | |
| 20260831064518 | 57 | 0.0 | 0.0 | 0.00 | 0.00 | 0.00 | 96 | 1019.7 | |
| 20260831063537 | 57 | 0.0 | 0.0 | 0.00 | 0.00 | 0.00 | 96 | 1019.7 | |
| 20260831062516 | 57 | 0.0 | 0.0 | 0.00 | 0.00 | 0.00 | 96 | 1019.7 | |
| 20260831061517 | 58 | 0.0 | 0.0 | 0.00 | 0.00 | 0.00 | 96 | 1019.8 | |
| 20260831060517 | 58 | 0.0 | 0.0 | 0.00 | 0.00 | 0.00 | 95 | 1019.7 | |
| 20260831055517 | 58 | 0.0 | 0.0 | 0.00 | 0.00 | 0.00 | 96 | 1019.6 | |
| 20260831054517 | 58 | 0.0 | 0.0 | 0.00 | 0.00 | 0.00 | 96 | 1019.6 | |
| 20260831053537 | 58 | 0.0 | 0.0 | 0.00 | 0.00 | 0.00 | 96 | 1019.6 | |
| 20260831052517 | 58 | 0.0 | 0.0 | 0.00 | 0.00 | 0.00 | 95 | 1019.7 | |
| 20260831051517 | 59 | 0.0 | 0.0 | 0.00 | 0.00 | 0.00 | 95 | 1019.7 | |
| 20260831050517 | 59 | 0.0 | 0.0 | 0.00 | 0.00 | 0.00 | 96 | 1019.6 | |
| 20260831045537 | 59 | 0.0 | 0.0 | 0.00 | 0.00 | 0.00 | 95 | 1019.7 | |
| 20260831044517 | 59 | 0.0 | 0.0 | 0.00 | 0.01 | 0.00 | 95 | 1019.6 | |
| 20260831043517 | 59 | 0.0 | 0.0 | 0.00 | 0.01 | 0.00 | 95 | 1019.6 | |
| 20260831042538 | 59 | 0.0 | 0.0 | 0.00 | 0.01 | 0.00 | 95 | 1019.5 | |
| 20260831041537 | 59 | 0.0 | 0.0 | 0.00 | 0.09 | 0.00 | 94 | 1019.5 | |
| 20260831040517 | 60 | 0.0 | 0.0 | 0.00 | 0.12 | 0.00 | 95 | 1019.2 | |
| 20260831035517 | 60 | 0.0 | 0.0 | 0.00 | 0.12 | 0.12 | 95 | 1019.0 | |
| 20260831034537 | 60 | 0.0 | 0.0 | 0.00 | 0.13 | 0.12 | 93 | 1018.9 | |
| 20260831033558 | 60 | 0.0 | 0.0 | 0.00 | 0.13 | 0.12 | 92 | 1018.9 | |
| 20260831032538 | 61 | 0.0 | 0.0 | 0.00 | 0.16 | 0.12 | 92 | 1019.0 | |
| 20260831031518 | 61 | 0.0 | 0.0 | 0.00 | 0.16 | 0.12 | 93 | 1018.9 | |
| 20260831030517 | 61 | 0.0 | 0.0 | 0.00 | 0.17 | 0.12 | 93 | 1018.8 | |
| 20260831025517 | 61 | 0.0 | 0.0 | 0.00 | 0.18 | 0.12 | 92 | 1018.7 | |
| 20260831024537 | 61 | 0.0 | 0.0 | 0.00 | 0.22 | 0.12 | 92 | 1018.6 | |
| 20260831023537 | 62 | 0.0 | 0.0 | 0.00 | 0.31 | 0.12 | 90 | 1018.5 | |
| 20260831022518 | 62 | 0.0 | 0.0 | 0.00 | 0.31 | 0.12 | 90 | 1018.5 | |
| 20260831021517 | 62 | 0.0 | 0.0 | 0.00 | 0.31 | 0.12 | 90 | 1018.3 | |
| 20260831020517 | 63 | 0.0 | 0.0 | 0.00 | 0.39 | 0.12 | 90 | 1018.3 | |
| 20260831015517 | 63 | 0.0 | 0.0 | 0.00 | 0.43 | 0.12 | 90 | 1018.2 | |
| 20260831014517 | 63 | 0.0 | 0.0 | 0.00 | 0.44 | 0.12 | 89 | 1018.1 | |
| 20260831013517 | 64 | 0.0 | 0.0 | 0.00 | 0.44 | 0.12 | 89 | 1018.0 | |
| 20260831012517 | 64 | 0.0 | 0.0 | 0.00 | 0.46 | 0.12 | 88 | 1017.7 | |
| 20260831011517 | 64 | 0.0 | 0.0 | 0.00 | 0.47 | 0.12 | 88 | 1017.6 | |
| 20260831010517 | 64 | 0.0 | 0.0 | 0.00 | 0.48 | 0.12 | 87 | 1017.3 | |
| 20260831005517 | 65 | 0.0 | 0.0 | 0.00 | 0.48 | 0.12 | 86 | 1017.4 | |
| 20260831004518 | 65 | 0.0 | 0.0 | 0.00 | 0.48 | 0.12 | 85 | 1017.3 | |
| 20260831003517 | 66 | 0.0 | 0.0 | 0.00 | 0.48 | 0.12 | 84 | 1017.2 | |
| 20260831002517 | 66 | 0.0 | 0.0 | 0.00 | 0.49 | 0.12 | 84 | 1017.2 | |
| 20260831001518 | 66 | 0.0 | 1.0 | 0.00 | 0.49 | 0.12 | 84 | 1016.9 | |
| 20260831000537 | 67 | 0.0 | 0.0 | 0.00 | 0.54 | 0.12 | 81 | 1016.8 | |
| 20260830235517 | 68 | 0.0 | 0.0 | 0.00 | 0.55 | 0.12 | 80 | 1016.8 | |
| 20260830234517 | 68 | 0.0 | 0.0 | 0.00 | 0.55 | 0.12 | 79 | 1016.6 | |
| 20260830233517 | 69 | 0.0 | 0.0 | 0.00 | 0.55 | 0.12 | 77 | 1016.4 | |
| 20260830232517 | 70 | 0.0 | 0.0 | 0.00 | 0.55 | 0.12 | 76 | 1016.3 | |
| 20260830231517 | 70 | 0.0 | 0.0 | 0.00 | 0.56 | 0.12 | 75 | 1016.1 | |
| 20260830230517 | 71 | 0.0 | 0.0 | 0.00 | 0.57 | 0.12 | 73 | 1016.1 | |
| 20260830225517 | 72 | 0.0 | 0.0 | 0.00 | 0.57 | 0.12 | 70 | 1016.0 | |
| 20260830224517 | 72 | 0.0 | 0.0 | 0.00 | 0.57 | 0.12 | 69 | 1015.9 | |
| 20260830223517 | 72 | 0.0 | 0.0 | 0.00 | 0.57 | 0.12 | 67 | 1016.0 | |
| 20260830222538 | 73 | 0.0 | 0.0 | 0.00 | 0.57 | 0.12 | 70 | 1016.1 | |
| 20260830221517 | 73 | 0.0 | 2.0 | 0.00 | 0.57 | 0.12 | 66 | 1016.0 | |
| 20260830220517 | 73 | 315 | 1.0 | 2.0 | 0.00 | 0.57 | 0.12 | 65 | 1015.9 |
| 20260830215538 | 73 | 315 | 1.0 | 3.0 | 0.00 | 0.57 | 0.12 | 65 | 1015.7 |
| 20260830214537 | 73 | 0.0 | 3.0 | 0.00 | 0.57 | 0.12 | 67 | 1015.6 | |
| 20260830213518 | 73 | 338 | 1.0 | 3.0 | 0.00 | 0.57 | 0.12 | 65 | 1015.6 |
| 20260830212517 | 73 | 0.0 | 2.0 | 0.00 | 0.57 | 0.12 | 68 | 1015.6 | |
| 20260830211557 | 73 | 0.0 | 2.0 | 0.00 | 0.57 | 0.12 | 69 | 1015.6 | |
| 20260830210517 | 73 | 315 | 1.0 | 4.0 | 0.00 | 0.57 | 0.12 | 68 | 1015.4 |
| 20260830205537 | 72 | 0.0 | 1.0 | 0.00 | 0.57 | 0.12 | 72 | 1015.4 | |
| 20260830204517 | 72 | 0.0 | 1.0 | 0.00 | 0.57 | 0.12 | 72 | 1015.3 |